Regional Weather Roundup
Issued by NWS Cleveland, OH

Home | Current Version | Previous Version | Graphics & Text | Print | Product List | Glossary On
Versions: 1 2 3 4 5 6 7 8 9 10 11 12 13 14 15 16 17 18 19 20 21 22 23 24 25 26 27 28 29 30 31 32 33 34 35 36 37 38 39 40 41 42 43 44 45 46 47 48 49 50
000
ASUS41 KCLE 230400
RWRCLE
OHIO REGIONAL WEATHER ROUNDUP
NATIONAL WEATHER SERVICE WILMINGTON, OH
1200 AM EDT TUE MAY 23 2017

NOTE: "FAIR" INDICATES FEW OR NO CLOUDS BELOW 12,000 FEET WITH NO
SIGNIFICANT WEATHER AND/OR OBSTRUCTIONS TO VISIBILITY.

OHZ001>008-015>018-024>027-034-035-043-044-230500-
   NORTHWEST OHIO

CITY           SKY/WX    TMP DP  RH WIND       PRES   REMARKS
DEFIANCE       FAIR      54  48  80 CALM      29.97S
FINDLAY        FAIR      56  48  74 S7        29.98S
TOLEDO EXPRESS FAIR      53  50  89 CALM      29.96F
TOLEDO EXEC    FAIR      56  50  80 S6        29.97F
LIMA           FAIR      57  50  77 S8        29.99S
$$

OHZ009>014-019>023-028>033-038-089-230500-
   NORTHEAST OHIO

CITY           SKY/WX    TMP DP  RH WIND       PRES   REMARKS
CLE-HOPKINS    MOCLDY    58  48  69 S8        30.01F
CLE-LAKEFRONT  FAIR      61  47  59 S8        29.98F
CUY CO. ARPT   NOT AVBL
LORAIN-ELYRIA  FAIR      56  45  66 S6        30.00S
ASHTABULA      FAIR      53  47  79 S6        30.01F
AKRON-CANTON   FAIR      56  46  69 S8        30.02F
WOOSTER        NOT AVBL
MANSFIELD      FAIR      55  48  77 S7        30.02S
YOUNGSTOWN     FAIR      54  45  71 S7        30.03F
$$

OHZ042-051>053-060>062-070>072-077>081-230500-
  SOUTHWEST OHIO

CITY           SKY/WX    TMP DP  RH WIND       PRES   REMARKS
CINC-COVINGTON CLOUDY    56  47  71 CALM      30.00F
CINC-LUNKEN    FAIR      54  52  93 CALM      30.01F
HAMILTON       FAIR      53  52  96 CALM      30.01F
DAYTON         NOT AVBL
WRIGHT-PAT AFB FAIR      57  49  74 SE3       30.01F
DAYTON GENERAL FAIR      58  46  64 CALM      30.00F
WILMINGTON     FAIR      55  48  77 SE3       30.01F
$$

OHZ036-037-039>041-045>050-054>059-063>069-073>076-082>088-230500-
  CENTRAL AND SOUTHEAST OHIO

CITY           SKY/WX    TMP DP  RH WIND       PRES   REMARKS
COLUMBUS       FAIR      57  48  72 SE3       30.02F
OSU AIRPORT    FAIR      58  48  69 S5        30.01F
BOLTON FIELD   NOT AVBL
RICKENBACK AFB NOT AVBL
NEWARK         FAIR      51  48  89 CALM      30.02F
MARION         FAIR      56  48  74 S9        30.01S
LANCASTER      FAIR      54  50  86 CALM      30.02F
ZANESVILLE     FAIR      53  49  86 CALM      30.03F
NEW PHILLY     FAIR      52  50  93 CALM      30.04F
$$




USA.gov is the U.S. government's official web portal to all federal, state and local government web resources and services.